Satellite-Ground Cal/Val Site Overpasses Predictions

Prediction of Satellite NPP Overpassing Cal/Val Site: Antarctic Dome C

Ground Cal/Val Site Location: Latitude: -75.10, Longitude: 123.35; Satellite-Ground Site NADIR distance within 100 km.

Table of predicted overpasses for the next 14.0 days since TLE Epoch: 12/2/2016
Interval Starting Time Ending Time Minimum Distance Time Minimum Distance (km)
1 12/03/2016 07:44:44 12/03/2016 07:45:03 12/03/2016 07:44:53 74.88
2 12/04/2016 07:25:49 12/04/2016 07:26:17 12/04/2016 07:26:03 32.84
3 12/06/2016 15:08:17 12/06/2016 15:08:23 12/06/2016 15:08:20 97.15
4 12/07/2016 14:49:16 12/07/2016 14:49:45 12/07/2016 14:49:30 14.19
5 12/09/2016 07:32:05 12/09/2016 07:32:34 12/09/2016 07:32:19 4.04
6 12/12/2016 14:55:31 12/12/2016 14:55:59 12/12/2016 14:55:45 22.36
7 12/13/2016 14:36:48 12/13/2016 14:37:04 12/13/2016 14:36:56 84.74
8 12/14/2016 07:38:21 12/14/2016 07:38:48 12/14/2016 07:38:35 39.94


NCC Satellite Cal/Val Overpasses Prediction Service
